| time (UTC) | temp F | wind direction | speed MPH | gust MPH | rain 1hr in | rain 24hr in | rain mn in | humidity % | barometer mb |
| 20260831022016 | 72 | 208 | 1.0 | 7.0 | 0.00 | 0.11 | 0.11 | 84 | 1015.2 |
| 20260831021548 | 72 | 207 | 3.0 | 7.0 | 0.00 | 0.11 | 0.11 | 84 | 1015.1 |
| 20260831021010 | 72 | 175 | 3.0 | 8.0 | 0.00 | 0.11 | 0.11 | 84 | 1015.0 |
| 20260831020514 | 72 | 212 | 2.0 | 9.0 | 0.00 | 0.11 | 0.11 | 84 | 1014.9 |
| 20260831020034 | 72 | 202 | 3.0 | 9.0 | 0.00 | 0.11 | 0.11 | 84 | 1014.9 |
| 20260831015512 | 72 | 210 | 3.0 | 9.0 | 0.00 | 0.11 | 0.11 | 84 | 1014.8 |
| 20260831015019 | 72 | 253 | 3.0 | 8.0 | 0.00 | 0.11 | 0.11 | 84 | 1015.0 |
| 20260831014532 | 72 | 242 | 3.0 | 8.0 | 0.00 | 0.11 | 0.11 | 84 | 1014.9 |
| 20260831014012 | 72 | 277 | 2.0 | 8.0 | 0.00 | 0.11 | 0.11 | 85 | 1015.0 |
| 20260831013517 | 72 | 198 | 3.0 | 8.0 | 0.00 | 0.11 | 0.11 | 85 | 1015.0 |
| 20260831013034 | 72 | 210 | 3.0 | 8.0 | 0.00 | 0.11 | 0.11 | 85 | 1014.9 |
| 20260831012514 | 72 | 205 | 2.0 | 11.0 | 0.00 | 0.11 | 0.11 | 86 | 1015.0 |
| 20260831012016 | 72 | 193 | 5.0 | 11.0 | 0.00 | 0.11 | 0.11 | 86 | 1015.0 |
| 20260831011518 | 72 | 148 | 4.0 | 10.0 | 0.00 | 0.11 | 0.11 | 86 | 1015.2 |
| 20260831011011 | 72 | 133 | 3.0 | 10.0 | 0.00 | 0.11 | 0.11 | 86 | 1015.2 |
| 20260831010517 | 72 | 229 | 2.0 | 8.0 | 0.00 | 0.11 | 0.11 | 86 | 1015.1 |
| 20260831010041 | 72 | 236 | 2.0 | 6.0 | 0.00 | 0.11 | 0.11 | 86 | 1015.0 |
| 20260831005516 | 72 | 255 | 1.0 | 7.0 | 0.00 | 0.11 | 0.11 | 86 | 1014.7 |
| 20260831005014 | 72 | 220 | 3.0 | 8.0 | 0.00 | 0.11 | 0.11 | 86 | 1014.7 |
| 20260831004523 | 72 | 229 | 4.0 | 8.0 | 0.00 | 0.11 | 0.11 | 86 | 1014.5 |
| 20260831004014 | 72 | 234 | 2.0 | 7.0 | 0.00 | 0.11 | 0.11 | 85 | 1014.5 |
| 20260831003519 | 72 | 249 | 3.0 | 7.0 | 0.00 | 0.11 | 0.11 | 85 | 1014.6 |
| 20260831003024 | 73 | 126 | 1.0 | 10.0 | 0.00 | 0.11 | 0.11 | 85 | 1014.4 |
| 20260831002514 | 73 | 254 | 1.0 | 10.0 | 0.00 | 0.11 | 0.11 | 85 | 1014.4 |
| 20260831002018 | 73 | 232 | 3.0 | 6.0 | 0.00 | 0.11 | 0.11 | 85 | 1014.4 |
| 20260831001539 | 73 | 228 | 1.0 | 4.0 | 0.00 | 0.11 | 0.11 | 85 | 1014.4 |
| 20260831001018 | 73 | 210 | 1.0 | 5.0 | 0.00 | 0.11 | 0.11 | 84 | 1014.4 |
| 20260831000507 | 73 | 159 | 2.0 | 5.0 | 0.00 | 0.11 | 0.11 | 84 | 1014.3 |
| 20260831000027 | 73 | 130 | 1.0 | 6.0 | 0.00 | 0.11 | 0.11 | 84 | 1014.2 |
| 20260830235503 | 74 | 184 | 2.0 | 6.0 | 0.00 | 0.11 | 0.11 | 84 | 1014.1 |
| 20260830235006 | 74 | 197 | 2.0 | 7.0 | 0.00 | 0.11 | 0.11 | 83 | 1014.1 |
| 20260830234529 | 74 | 233 | 4.0 | 7.0 | 0.00 | 0.11 | 0.11 | 83 | 1014.1 |
| 20260830234003 | 74 | 131 | 3.0 | 7.0 | 0.00 | 0.11 | 0.11 | 82 | 1014.0 |
| 20260830233510 | 74 | 232 | 1.0 | 7.0 | 0.00 | 0.11 | 0.11 | 82 | 1014.0 |
| 20260830233024 | 74 | 142 | 2.0 | 8.0 | 0.00 | 0.11 | 0.11 | 81 | 1014.0 |
| 20260830232503 | 74 | 226 | 3.0 | 9.0 | 0.00 | 0.11 | 0.11 | 81 | 1014.1 |
| 20260830232008 | 75 | 185 | 3.0 | 9.0 | 0.00 | 0.11 | 0.11 | 80 | 1014.2 |
| 20260830231531 | 75 | 209 | 3.0 | 8.0 | 0.00 | 0.11 | 0.11 | 80 | 1014.2 |
| 20260830231005 | 75 | 170 | 1.0 | 9.0 | 0.00 | 0.11 | 0.11 | 80 | 1014.3 |
| 20260830230515 | 75 | 254 | 4.0 | 9.0 | 0.00 | 0.11 | 0.11 | 80 | 1014.2 |
| 20260830230040 | 75 | 292 | 2.0 | 6.0 | 0.00 | 0.11 | 0.11 | 80 | 1014.2 |
| 20260830225505 | 75 | 211 | 2.0 | 6.0 | 0.00 | 0.11 | 0.11 | 81 | 1014.2 |
| 20260830225011 | 75 | 250 | 2.0 | 6.0 | 0.00 | 0.11 | 0.11 | 81 | 1014.1 |
| 20260830224505 | 74 | 207 | 2.0 | 5.0 | 0.00 | 0.11 | 0.11 | 81 | 1014.1 |
| 20260830224006 | 74 | 252 | 2.0 | 5.0 | 0.00 | 0.11 | 0.11 | 81 | 1014.1 |
| 20260830223513 | 74 | 212 | 1.0 | 6.0 | 0.00 | 0.11 | 0.11 | 81 | 1014.2 |
| 20260830223010 | 74 | 192 | 2.0 | 6.0 | 0.00 | 0.11 | 0.11 | 81 | 1014.1 |
| 20260830222509 | 74 | 217 | 2.0 | 5.0 | 0.00 | 0.11 | 0.11 | 81 | 1014.1 |
| 20260830222013 | 74 | 228 | 2.0 | 7.0 | 0.00 | 0.11 | 0.11 | 81 | 1014.1 |
| 20260830221507 | 74 | 248 | 1.0 | 7.0 | 0.00 | 0.11 | 0.11 | 81 | 1014.1 |
| 20260830221007 | 74 | 214 | 3.0 | 9.0 | 0.00 | 0.11 | 0.11 | 81 | 1014.2 |
| 20260830220513 | 74 | 149 | 3.0 | 9.0 | 0.00 | 0.11 | 0.11 | 82 | 1014.2 |
| 20260830220008 | 74 | 219 | 3.0 | 8.0 | 0.00 | 0.11 | 0.11 | 81 | 1014.1 |
| 20260830215506 | 74 | 245 | 1.0 | 11.0 | 0.00 | 0.11 | 0.11 | 81 | 1014.2 |
| 20260830215014 | 74 | 211 | 5.0 | 11.0 | 0.00 | 0.11 | 0.11 | 81 | 1014.2 |
| 20260830214508 | 74 | 257 | 3.0 | 11.0 | 0.00 | 0.11 | 0.11 | 81 | 1014.2 |
| 20260830214009 | 74 | 234 | 5.0 | 10.0 | 0.00 | 0.11 | 0.11 | 80 | 1014.0 |
| 20260830213522 | 74 | 163 | 3.0 | 10.0 | 0.00 | 0.13 | 0.11 | 81 | 1014.1 |
| 20260830213035 | 74 | 254 | 4.0 | 13.0 | 0.00 | 0.15 | 0.11 | 81 | 1014.1 |
| 20260830212508 | 74 | 195 | 3.0 | 13.0 | 0.00 | 0.15 | 0.11 | 80 | 1014.0 |
| 20260830212016 | 74 | 246 | 5.0 | 13.0 | 0.00 | 0.15 | 0.11 | 79 | 1013.9 |
| 20260830211518 | 74 | 178 | 5.0 | 9.0 | 0.00 | 0.15 | 0.11 | 79 | 1014.0 |
| 20260830211012 | 75 | 259 | 3.0 | 9.0 | 0.00 | 0.16 | 0.11 | 79 | 1014.0 |
| 20260830210514 | 75 | 221 | 3.0 | 9.0 | 0.00 | 0.16 | 0.11 | 79 | 1014.0 |
| 20260830210015 | 75 | 198 | 5.0 | 10.0 | 0.00 | 0.16 | 0.11 | 78 | 1014.1 |
| 20260830205515 | 75 | 227 | 4.0 | 17.0 | 0.00 | 0.16 | 0.11 | 77 | 1014.2 |
| 20260830205018 | 75 | 171 | 5.0 | 17.0 | 0.00 | 0.16 | 0.11 | 77 | 1014.2 |
| 20260830204514 | 75 | 148 | 5.0 | 15.0 | 0.00 | 0.16 | 0.11 | 76 | 1014.2 |
| 20260830204012 | 76 | 263 | 5.0 | 17.0 | 0.00 | 0.16 | 0.11 | 75 | 1014.2 |
| 20260830203516 | 76 | 232 | 4.0 | 17.0 | 0.00 | 0.16 | 0.11 | 75 | 1014.2 |
| 20260830203017 | 76 | 117 | 4.0 | 16.0 | 0.00 | 0.16 | 0.11 | 76 | 1014.2 |
| 20260830202517 | 76 | 282 | 3.0 | 12.0 | 0.00 | 0.16 | 0.11 | 75 | 1014.2 |
| 20260830202016 | 76 | 245 | 4.0 | 15.0 | 0.00 | 0.16 | 0.11 | 76 | 1014.2 |
| 20260830201516 | 76 | 232 | 7.0 | 15.0 | 0.00 | 0.16 | 0.11 | 75 | 1014.2 |
| 20260830201013 | 77 | 217 | 5.0 | 11.0 | 0.00 | 0.16 | 0.11 | 74 | 1014.2 |
| 20260830200517 | 77 | 217 | 6.0 | 12.0 | 0.00 | 0.16 | 0.11 | 74 | 1014.2 |
| 20260830200018 | 77 | 217 | 5.0 | 19.0 | 0.00 | 0.16 | 0.11 | 73 | 1014.1 |
| 20260830195515 | 77 | 255 | 9.0 | 19.0 | 0.00 | 0.16 | 0.11 | 72 | 1014.2 |
| 20260830195003 | 78 | 237 | 8.0 | 21.0 | 0.00 | 0.16 | 0.11 | 71 | 1014.4 |
| 20260830194536 | 78 | 275 | 6.0 | 21.0 | 0.00 | 0.16 | 0.11 | 69 | 1014.5 |
| 20260830194016 | 79 | 266 | 6.0 | 21.0 | 0.00 | 0.16 | 0.11 | 68 | 1014.6 |
| 20260830193506 | 79 | 238 | 7.0 | 24.0 | 0.00 | 0.16 | 0.11 | 68 | 1014.5 |
| 20260830193024 | 80 | 178 | 13.0 | 24.0 | 0.00 | 0.16 | 0.11 | 67 | 1014.6 |
| 20260830192515 | 80 | 268 | 9.0 | 23.0 | 0.00 | 0.16 | 0.11 | 66 | 1014.6 |
| 20260830192005 | 81 | 262 | 12.0 | 23.0 | 0.00 | 0.16 | 0.11 | 65 | 1014.5 |
| 20260830191526 | 81 | 267 | 8.0 | 19.0 | 0.00 | 0.16 | 0.11 | 64 | 1014.6 |
| 20260830191018 | 81 | 171 | 7.0 | 20.0 | 0.00 | 0.16 | 0.11 | 64 | 1014.5 |
| 20260830190511 | 81 | 219 | 9.0 | 24.0 | 0.00 | 0.16 | 0.11 | 63 | 1014.5 |
| 20260830190031 | 82 | 304 | 13.0 | 24.0 | 0.00 | 0.16 | 0.11 | 61 | 1014.5 |
| 20260830185517 | 83 | 205 | 6.0 | 25.0 | 0.00 | 0.16 | 0.11 | 60 | 1014.4 |
| 20260830185010 | 83 | 186 | 9.0 | 25.0 | 0.00 | 0.16 | 0.11 | 59 | 1014.4 |
| 20260830184527 | 83 | 147 | 9.0 | 22.0 | 0.00 | 0.16 | 0.11 | 59 | 1014.4 |
| 20260830184025 | 82 | 247 | 10.0 | 22.0 | 0.00 | 0.16 | 0.11 | 60 | 1014.4 |
| 20260830183521 | 82 | 241 | 14.0 | 28.0 | 0.00 | 0.16 | 0.11 | 59 | 1014.2 |
| 20260830183027 | 82 | 193 | 9.0 | 28.0 | 0.00 | 0.16 | 0.11 | 59 | 1014.0 |
| 20260830182516 | 82 | 201 | 14.0 | 22.0 | 0.00 | 0.16 | 0.11 | 58 | 1013.9 |
| 20260830182010 | 83 | 242 | 11.0 | 22.0 | 0.00 | 0.16 | 0.11 | 58 | 1013.8 |
| 20260830181539 | 84 | 246 | 7.0 | 29.0 | 0.00 | 0.16 | 0.11 | 56 | 1013.7 |
| 20260830181015 | 85 | 279 | 11.0 | 29.0 | 0.00 | 0.16 | 0.11 | 55 | 1013.7 |
| 20260830180510 | 84 | 196 | 7.0 | 22.0 | 0.00 | 0.16 | 0.11 | 55 | 1013.6 |
| 20260830180005 | 85 | 185 | 11.0 | 22.0 | 0.00 | 0.16 | 0.11 | 54 | 1013.4 |
| 20260830175504 | 85 | 202 | 10.0 | 17.0 | 0.00 | 0.16 | 0.11 | 53 | 1013.3 |
| 20260830175010 | 85 | 179 | 8.0 | 18.0 | 0.00 | 0.16 | 0.11 | 53 | 1013.2 |
| 20260830174507 | 86 | 233 | 7.0 | 19.0 | 0.00 | 0.16 | 0.11 | 53 | 1013.2 |
| 20260830174005 | 85 | 259 | 6.0 | 24.0 | 0.00 | 0.16 | 0.11 | 54 | 1013.3 |
| 20260830173509 | 85 | 207 | 14.0 | 25.0 | 0.00 | 0.16 | 0.11 | 53 | 1013.3 |
| 20260830173007 | 86 | 188 | 8.0 | 16.0 | 0.00 | 0.16 | 0.11 | 54 | 1013.3 |
| 20260830172508 | 86 | 309 | 6.0 | 18.0 | 0.00 | 0.16 | 0.11 | 55 | 1013.2 |
| 20260830172018 | 86 | 238 | 8.0 | 18.0 | 0.00 | 0.16 | 0.11 | 54 | 1013.3 |
| 20260830171506 | 87 | 153 | 6.0 | 12.0 | 0.00 | 0.16 | 0.11 | 54 | 1013.3 |
| 20260830171006 | 87 | 316 | 7.0 | 16.0 | 0.00 | 0.16 | 0.11 | 53 | 1013.4 |
| 20260830170505 | 86 | 327 | 8.0 | 16.0 | 0.00 | 0.16 | 0.11 | 54 | 1013.2 |
| 20260830170012 | 86 | 139 | 6.0 | 21.0 | 0.00 | 0.16 | 0.11 | 54 | 1013.2 |
| 20260830165510 | 86 | 216 | 8.0 | 21.0 | 0.00 | 0.16 | 0.11 | 54 | 1013.2 |
| 20260830165002 | 86 | 183 | 7.0 | 17.0 | 0.00 | 0.16 | 0.11 | 55 | 1013.4 |
| 20260830164510 | 86 | 188 | 7.0 | 17.0 | 0.00 | 0.16 | 0.11 | 56 | 1013.4 |
| 20260830164010 | 85 | 219 | 5.0 | 17.0 | 0.00 | 0.16 | 0.11 | 57 | 1013.4 |
| 20260830163502 | 85 | 159 | 7.0 | 17.0 | 0.00 | 0.16 | 0.11 | 57 | 1013.5 |
| 20260830163013 | 85 | 157 | 3.0 | 12.0 | 0.00 | 0.16 | 0.11 | 57 | 1013.5 |
| 20260830162514 | 85 | 195 | 3.0 | 12.0 | 0.00 | 0.16 | 0.11 | 57 | 1013.6 |
| 20260830162002 | 85 | 194 | 4.0 | 14.0 | 0.00 | 0.16 | 0.11 | 57 | 1013.5 |
| 20260830161527 | 84 | 266 | 6.0 | 15.0 | 0.00 | 0.16 | 0.11 | 58 | 1013.5 |
| 20260830161012 | 84 | 121 | 4.0 | 15.0 | 0.00 | 0.16 | 0.11 | 58 | 1013.5 |
| 20260830160502 | 84 | 180 | 6.0 | 15.0 | 0.00 | 0.16 | 0.11 | 58 | 1013.5 |
| 20260830160013 | 84 | 189 | 4.0 | 12.0 | 0.00 | 0.16 | 0.11 | 60 | 1013.5 |
| 20260830155517 | 83 | 295 | 5.0 | 14.0 | 0.00 | 0.16 | 0.11 | 61 | 1013.5 |
| 20260830155003 | 83 | 238 | 3.0 | 14.0 | 0.00 | 0.16 | 0.11 | 61 | 1013.6 |
| 20260830154533 | 83 | 266 | 5.0 | 12.0 | 0.00 | 0.16 | 0.11 | 60 | 1013.7 |
| 20260830154012 | 83 | 257 | 2.0 | 14.0 | 0.00 | 0.16 | 0.11 | 63 | 1013.8 |
| 20260830153502 | 82 | 218 | 3.0 | 14.0 | 0.00 | 0.16 | 0.11 | 64 | 1013.8 |
| 20260830153018 | 81 | 186 | 4.0 | 13.0 | 0.00 | 0.16 | 0.11 | 64 | 1013.8 |
| 20260830152513 | 81 | 219 | 5.0 | 10.0 | 0.00 | 0.16 | 0.11 | 65 | 1013.8 |
| 20260830152005 | 81 | 246 | 3.0 | 10.0 | 0.00 | 0.16 | 0.11 | 66 | 1013.8 |
| 20260830151520 | 80 | 292 | 4.0 | 10.0 | 0.00 | 0.16 | 0.11 | 67 | 1013.9 |
| 20260830151014 | 80 | 248 | 5.0 | 10.0 | 0.00 | 0.16 | 0.11 | 67 | 1013.9 |
| 20260830150506 | 79 | 221 | 3.0 | 8.0 | 0.00 | 0.16 | 0.11 | 68 | 1013.8 |
| 20260830150018 | 79 | 176 | 3.0 | 8.0 | 0.00 | 0.16 | 0.11 | 68 | 1013.8 |
| 20260830145516 | 79 | 237 | 3.0 | 8.0 | 0.00 | 0.16 | 0.11 | 69 | 1013.9 |
| 20260830145015 | 79 | 222 | 2.0 | 8.0 | 0.00 | 0.16 | 0.11 | 70 | 1013.8 |
| 20260830144525 | 78 | 222 | 1.0 | 7.0 | 0.00 | 0.16 | 0.11 | 72 | 1013.8 |
| 20260830144018 | 77 | 194 | 3.0 | 8.0 | 0.00 | 0.16 | 0.11 | 72 | 1013.9 |
| 20260830143504 | 77 | 153 | 2.0 | 12.0 | 0.00 | 0.16 | 0.11 | 73 | 1013.8 |
| 20260830143026 | 77 | 200 | 1.0 | 12.0 | 0.00 | 0.16 | 0.11 | 74 | 1013.8 |
| 20260830142504 | 76 | 223 | 2.0 | 10.0 | 0.00 | 0.16 | 0.11 | 75 | 1013.8 |
| 20260830142006 | 76 | 193 | 2.0 | 5.0 | 0.00 | 0.16 | 0.11 | 75 | 1013.9 |
| 20260830141523 | 76 | 227 | 2.0 | 6.0 | 0.00 | 0.16 | 0.11 | 76 | 1014.0 |
| 20260830141006 | 75 | 161 | 1.0 | 8.0 | 0.00 | 0.16 | 0.11 | 77 | 1013.9 |
| 20260830140505 | 74 | 267 | 1.0 | 8.0 | 0.00 | 0.16 | 0.11 | 79 | 1013.9 |
| 20260830140028 | 74 | 103 | 2.0 | 8.0 | 0.00 | 0.16 | 0.11 | 79 | 1013.9 |
| 20260830135503 | 73 | 147 | 2.0 | 8.0 | 0.00 | 0.16 | 0.11 | 80 | 1013.9 |
| 20260830135008 | 73 | 196 | 2.0 | 7.0 | 0.00 | 0.16 | 0.11 | 81 | 1013.9 |
| 20260830134539 | 73 | 135 | 1.0 | 6.0 | 0.00 | 0.16 | 0.11 | 82 | 1013.9 |
| 20260830134003 | 72 | 170 | 3.0 | 8.0 | 0.00 | 0.16 | 0.11 | 84 | 1014.0 |
| 20260830133506 | 71 | 155 | 3.0 | 8.0 | 0.00 | 0.16 | 0.11 | 84 | 1013.9 |
| 20260830133036 | 71 | 172 | 3.0 | 5.0 | 0.00 | 0.16 | 0.11 | 85 | 1013.9 |
| 20260830132504 | 70 | 223 | 1.0 | 8.0 | 0.00 | 0.16 | 0.11 | 86 | 1014.0 |
| 20260830132013 | 70 | 194 | 3.0 | 8.0 | 0.00 | 0.16 | 0.11 | 87 | 1014.1 |
| 20260830131528 | 70 | 184 | 2.0 | 7.0 | 0.00 | 0.16 | 0.11 | 87 | 1014.2 |
| 20260830131006 | 70 | 185 | 1.0 | 8.0 | 0.00 | 0.16 | 0.11 | 87 | 1014.1 |
| 20260830130510 | 69 | 199 | 3.0 | 8.0 | 0.00 | 0.16 | 0.11 | 88 | 1014.2 |
| 20260830130031 | 69 | 217 | 3.0 | 7.0 | 0.00 | 0.16 | 0.11 | 88 | 1014.2 |
| 20260830125505 | 69 | 236 | 1.0 | 6.0 | 0.00 | 0.16 | 0.11 | 89 | 1014.3 |
| 20260830125010 | 68 | 236 | 0.0 | 6.0 | 0.00 | 0.16 | 0.11 | 90 | 1014.3 |
| 20260830124532 | 68 | 221 | 2.0 | 5.0 | 0.00 | 0.16 | 0.11 | 90 | 1014.3 |
| 20260830124010 | 68 | 180 | 1.0 | 5.0 | 0.00 | 0.16 | 0.11 | 90 | 1014.4 |
| 20260830123510 | 68 | 225 | 1.0 | 5.0 | 0.00 | 0.16 | 0.11 | 90 | 1014.5 |
| 20260830123034 | 68 | 128 | 1.0 | 4.0 | 0.01 | 0.16 | 0.11 | 90 | 1014.4 |
| 20260830122506 | 68 | 250 | 2.0 | 4.0 | 0.02 | 0.16 | 0.11 | 90 | 1014.5 |
| 20260830122015 | 68 | 212 | 1.0 | 4.0 | 0.02 | 0.16 | 0.11 | 90 | 1014.4 |
| 20260830121531 | 68 | 165 | 0.0 | 3.0 | 0.02 | 0.16 | 0.11 | 90 | 1014.5 |
| 20260830121007 | 68 | 183 | 1.0 | 4.0 | 0.02 | 0.16 | 0.11 | 89 | 1014.5 |
| 20260830120512 | 68 | 234 | 1.0 | 4.0 | 0.02 | 0.16 | 0.11 | 89 | 1014.5 |
| 20260830120030 | 68 | 199 | 0.0 | 5.0 | 0.02 | 0.16 | 0.11 | 89 | 1014.5 |
| 20260830115509 | 68 | 184 | 2.0 | 5.0 | 0.02 | 0.16 | 0.11 | 89 | 1014.4 |
| 20260830115017 | 68 | 244 | 1.0 | 4.0 | 0.02 | 0.16 | 0.11 | 88 | 1014.3 |
| 20260830114542 | 68 | 217 | 2.0 | 6.0 | 0.02 | 0.16 | 0.11 | 88 | 1014.3 |
| 20260830114009 | 68 | 227 | 1.0 | 6.0 | 0.02 | 0.16 | 0.11 | 88 | 1014.2 |
| 20260830113512 | 68 | 234 | 2.0 | 6.0 | 0.02 | 0.16 | 0.11 | 87 | 1014.2 |
| 20260830113011 | 68 | 187 | 1.0 | 5.0 | 0.02 | 0.15 | 0.10 | 87 | 1014.1 |
| 20260830112510 | 68 | 203 | 2.0 | 5.0 | 0.01 | 0.14 | 0.09 | 87 | 1014.2 |
| 20260830112016 | 68 | 246 | 1.0 | 4.0 | 0.02 | 0.14 | 0.09 | 86 | 1014.0 |
| 20260830111514 | 68 | 215 | 1.0 | 4.0 | 0.02 | 0.14 | 0.09 | 86 | 1013.9 |
| 20260830111012 | 68 | 241 | 2.0 | 7.0 | 0.02 | 0.14 | 0.09 | 86 | 1014.1 |
| 20260830110516 | 68 | 224 | 2.0 | 7.0 | 0.04 | 0.14 | 0.09 | 86 | 1013.9 |
| 20260830110017 | 68 | 283 | 0.0 | 5.0 | 0.04 | 0.14 | 0.09 | 86 | 1013.8 |
| 20260830105511 | 68 | 124 | 1.0 | 7.0 | 0.04 | 0.14 | 0.09 | 86 | 1013.6 |
| 20260830105015 | 68 | 167 | 2.0 | 7.0 | 0.04 | 0.14 | 0.09 | 86 | 1013.8 |
| 20260830104514 | 68 | 220 | 1.0 | 8.0 | 0.04 | 0.14 | 0.09 | 86 | 1013.8 |
| 20260830104011 | 68 | 169 | 2.0 | 8.0 | 0.04 | 0.14 | 0.09 | 86 | 1013.8 |
| 20260830103515 | 69 | 202 | 2.0 | 6.0 | 0.04 | 0.14 | 0.09 | 85 | 1013.7 |
| 20260830103017 | 69 | 191 | 2.0 | 7.0 | 0.03 | 0.13 | 0.08 | 84 | 1013.6 |
| 20260830102514 | 69 | 214 | 2.0 | 8.0 | 0.03 | 0.13 | 0.08 | 83 | 1013.8 |
| 20260830102018 | 70 | 205 | 2.0 | 8.0 | 0.02 | 0.12 | 0.07 | 82 | 1013.9 |
| 20260830101517 | 70 | 200 | 3.0 | 10.0 | 0.02 | 0.12 | 0.07 | 81 | 1014.0 |
| 20260830101015 | 71 | 302 | 2.0 | 10.0 | 0.03 | 0.12 | 0.07 | 80 | 1013.8 |
| 20260830100517 | 71 | 254 | 1.0 | 9.0 | 0.01 | 0.10 | 0.05 | 80 | 1013.6 |
| 20260830100022 | 70 | 203 | 2.0 | 6.0 | 0.01 | 0.10 | 0.05 | 80 | 1013.6 |
| 20260830095514 | 70 | 214 | 3.0 | 9.0 | 0.01 | 0.10 | 0.05 | 82 | 1013.6 |
| 20260830095016 | 70 | 280 | 3.0 | 9.0 | 0.01 | 0.10 | 0.05 | 83 | 1013.7 |
| 20260830094524 | 70 | 162 | 2.0 | 9.0 | 0.01 | 0.10 | 0.05 | 84 | 1013.6 |
| 20260830094018 | 69 | 210 | 2.0 | 10.0 | 0.01 | 0.10 | 0.05 | 84 | 1013.7 |
| 20260830093516 | 69 | 223 | 2.0 | 13.0 | 0.01 | 0.10 | 0.05 | 84 | 1013.6 |
| 20260830093023 | 69 | 192 | 5.0 | 13.0 | 0.01 | 0.10 | 0.05 | 83 | 1013.7 |
| 20260830092514 | 69 | 206 | 4.0 | 13.0 | 0.01 | 0.10 | 0.05 | 83 | 1013.8 |
| 20260830092017 | 69 | 272 | 4.0 | 10.0 | 0.01 | 0.10 | 0.05 | 83 | 1013.9 |
| 20260830091528 | 70 | 232 | 4.0 | 10.0 | 0.01 | 0.10 | 0.05 | 82 | 1013.6 |
| 20260830091016 | 70 | 214 | 3.0 | 10.0 | 0.00 | 0.09 | 0.04 | 80 | 1013.9 |
| 20260830090506 | 70 | 293 | 3.0 | 10.0 | 0.01 | 0.09 | 0.04 | 80 | 1014.0 |
| 20260830090031 | 70 | 152 | 2.0 | 7.0 | 0.01 | 0.09 | 0.04 | 80 | 1014.0 |
| 20260830085502 | 70 | 244 | 2.0 | 5.0 | 0.01 | 0.09 | 0.04 | 80 | 1014.1 |
| 20260830085006 | 70 | 23 | 1.0 | 5.0 | 0.01 | 0.09 | 0.04 | 80 | 1014.4 |
| 20260830084503 | 69 | 229 | 3.0 | 5.0 | 0.01 | 0.09 | 0.04 | 81 | 1014.5 |
| 20260830084003 | 69 | 200 | 1.0 | 3.0 | 0.01 | 0.09 | 0.04 | 81 | 1014.3 |
| 20260830083508 | 69 | 229 | 1.0 | 3.0 | 0.01 | 0.09 | 0.04 | 81 | 1014.1 |
| 20260830083007 | 69 | 174 | 1.0 | 2.0 | 0.01 | 0.09 | 0.04 | 82 | 1014.1 |
| 20260830082502 | 69 | 166 | 1.0 | 2.0 | 0.01 | 0.09 | 0.04 | 82 | 1014.1 |
| 20260830082008 | 69 | 192 | 0.0 | 3.0 | 0.01 | 0.09 | 0.04 | 83 | 1014.1 |
| 20260830081509 | 69 | 166 | 1.0 | 3.0 | 0.01 | 0.09 | 0.04 | 82 | 1014.1 |
| 20260830081004 | 69 | 240 | 1.0 | 4.0 | 0.01 | 0.09 | 0.04 | 81 | 1014.1 |
| 20260830080512 | 69 | 180 | 1.0 | 4.0 | 0.00 | 0.08 | 0.03 | 80 | 1014.1 |
| 20260830080006 | 69 | 178 | 1.0 | 4.0 | 0.00 | 0.08 | 0.03 | 80 | 1014.3 |
| 20260830075505 | 70 | 151 | 0.0 | 2.0 | 0.00 | 0.08 | 0.03 | 80 | 1014.3 |
| 20260830075014 | 70 | 186 | 0.0 | 3.0 | 0.00 | 0.08 | 0.03 | 79 | 1014.5 |
| 20260830074518 | 70 | 291 | 1.0 | 8.0 | 0.00 | 0.08 | 0.03 | 80 | 1014.7 |
| 20260830074008 | 69 | 239 | 1.0 | 8.0 | 0.03 | 0.08 | 0.03 | 80 | 1014.4 |
| 20260830073510 | 69 | 214 | 2.0 | 5.0 | 0.03 | 0.08 | 0.03 | 80 | 1014.2 |
| 20260830073005 | 69 | 239 | 1.0 | 5.0 | 0.03 | 0.08 | 0.03 | 81 | 1014.2 |
| 20260830072507 | 69 | 193 | 2.0 | 5.0 | 0.03 | 0.08 | 0.03 | 81 | 1014.3 |
| 20260830072016 | 69 | 191 | 2.0 | 5.0 | 0.03 | 0.08 | 0.03 | 81 | 1014.4 |
| 20260830071508 | 69 | 192 | 1.0 | 5.0 | 0.03 | 0.08 | 0.03 | 82 | 1014.6 |
| 20260830071007 | 69 | 200 | 2.0 | 5.0 | 0.03 | 0.08 | 0.03 | 82 | 1014.7 |
| 20260830070514 | 69 | 221 | 1.0 | 4.0 | 0.03 | 0.08 | 0.03 | 83 | 1014.8 |
| 20260830070007 | 69 | 190 | 1.0 | 5.0 | 0.03 | 0.08 | 0.03 | 82 | 1014.8 |
| 20260830065508 | 69 | 132 | 1.0 | 5.0 | 0.03 | 0.08 | 0.03 | 81 | 1015.0 |
| 20260830065017 | 70 | 198 | 1.0 | 5.0 | 0.03 | 0.08 | 0.03 | 80 | 1015.1 |
| 20260830064510 | 70 | 194 | 1.0 | 5.0 | 0.03 | 0.08 | 0.03 | 78 | 1015.2 |
| 20260830064010 | 71 | 200 | 1.0 | 5.0 | 0.00 | 0.05 | 0.00 | 76 | 1015.4 |
| 20260830063517 | 71 | 142 | 1.0 | 5.0 | 0.00 | 0.05 | 0.00 | 76 | 1015.4 |
| 20260830063013 | 71 | 212 | 1.0 | 5.0 | 0.00 | 0.05 | 0.00 | 76 | 1015.5 |
| 20260830062509 | 71 | 279 | 2.0 | 5.0 | 0.00 | 0.05 | 0.00 | 76 | 1015.7 |
| 20260830062013 | 71 | 150 | 2.0 | 7.0 | 0.00 | 0.05 | 0.00 | 77 | 1015.5 |
| 20260830061521 | 71 | 226 | 1.0 | 7.0 | 0.00 | 0.05 | 0.00 | 77 | 1015.6 |
| 20260830061011 | 70 | 198 | 0.0 | 6.0 | 0.00 | 0.05 | 0.00 | 77 | 1015.6 |
| 20260830060520 | 70 | 198 | 2.0 | 6.0 | 0.00 | 0.05 | 0.00 | 78 | 1015.5 |
| 20260830060014 | 70 | 234 | 2.0 | 5.0 | 0.00 | 0.05 | 0.00 | 78 | 1015.5 |
| 20260830055510 | 70 | 186 | 2.0 | 6.0 | 0.00 | 0.05 | 0.00 | 78 | 1015.5 |
| 20260830055003 | 70 | 158 | 2.0 | 6.0 | 0.00 | 0.05 | 0.00 | 79 | 1015.6 |
| 20260830054524 | 70 | 208 | 2.0 | 6.0 | 0.00 | 0.05 | 0.00 | 79 | 1015.7 |
| 20260830054016 | 70 | 215 | 1.0 | 6.0 | 0.00 | 0.05 | 0.00 | 79 | 1015.7 |
| 20260830053504 | 70 | 178 | 1.0 | 5.0 | 0.00 | 0.05 | 0.00 | 79 | 1015.7 |
| 20260830053014 | 70 | 176 | 1.0 | 4.0 | 0.00 | 0.05 | 0.00 | 79 | 1015.7 |
| 20260830052514 | 70 | 229 | 1.0 | 4.0 | 0.00 | 0.05 | 0.00 | 79 | 1015.7 |
| 20260830052003 | 70 | 138 | 2.0 | 4.0 | 0.00 | 0.05 | 0.00 | 79 | 1015.8 |
| 20260830051537 | 70 | 240 | 1.0 | 4.0 | 0.00 | 0.05 | 0.00 | 79 | 1015.9 |
| 20260830051017 | 70 | 219 | 2.0 | 4.0 | 0.00 | 0.05 | 0.00 | 79 | 1015.8 |
| 20260830050503 | 70 | 186 | 1.0 | 4.0 | 0.00 | 0.05 | 0.00 | 79 | 1015.9 |
| 20260830050023 | 70 | 200 | 1.0 | 4.0 | 0.00 | 0.05 | 0.00 | 80 | 1015.9 |
| 20260830045517 | 70 | 203 | 0.0 | 3.0 | 0.00 | 0.05 | 0.05 | 79 | 1016.0 |
| 20260830045003 | 70 | 159 | 1.0 | 3.0 | 0.00 | 0.05 | 0.05 | 80 | 1015.9 |
| 20260830044524 | 70 | 256 | 1.0 | 3.0 | 0.00 | 0.05 | 0.05 | 79 | 1016.0 |
| 20260830044015 | 70 | 221 | 1.0 | 3.0 | 0.00 | 0.05 | 0.05 | 79 | 1016.0 |
| 20260830043505 | 70 | 212 | 1.0 | 3.0 | 0.00 | 0.05 | 0.05 | 79 | 1015.9 |
| 20260830043025 | 70 | 180 | 0.0 | 3.0 | 0.00 | 0.05 | 0.05 | 79 | 1015.9 |
| 20260830042516 | 70 | 213 | 1.0 | 3.0 | 0.00 | 0.05 | 0.05 | 79 | 1016.0 |
| 20260830042004 | 70 | 227 | 1.0 | 3.0 | 0.00 | 0.05 | 0.05 | 79 | 1016.0 |
| 20260830041554 | 70 | 239 | 0.0 | 2.0 | 0.00 | 0.05 | 0.05 | 79 | 1015.9 |
| 20260830041015 | 70 | 152 | 0.0 | 4.0 | 0.00 | 0.05 | 0.05 | 79 | 1015.9 |
| 20260830040505 | 70 | 190 | 1.0 | 4.0 | 0.00 | 0.05 | 0.05 | 79 | 1016.0 |
| 20260830040029 | 70 | 244 | 1.0 | 4.0 | 0.00 | 0.05 | 0.05 | 78 | 1016.1 |
| 20260830035517 | 70 | 148 | 1.0 | 4.0 | 0.00 | 0.05 | 0.05 | 78 | 1016.0 |
| 20260830035009 | 70 | 196 | 0.0 | 4.0 | 0.00 | 0.05 | 0.05 | 78 | 1016.1 |
| 20260830034529 | 71 | 197 | 1.0 | 6.0 | 0.00 | 0.05 | 0.05 | 78 | 1016.2 |
| 20260830034019 | 71 | 120 | 2.0 | 6.0 | 0.00 | 0.05 | 0.05 | 77 | 1016.1 |
| 20260830033508 | 71 | 233 | 1.0 | 6.0 | 0.00 | 0.05 | 0.05 | 77 | 1016.2 |
| 20260830033028 | 71 | 227 | 1.0 | 7.0 | 0.00 | 0.05 | 0.05 | 77 | 1016.1 |
| 20260830032516 | 71 | 214 | 3.0 | 7.0 | 0.00 | 0.05 | 0.05 | 77 | 1016.1 |
| 20260830032008 | 71 | 185 | 1.0 | 5.0 | 0.00 | 0.05 | 0.05 | 76 | 1016.0 |
| 20260830031531 | 71 | 182 | 1.0 | 5.0 | 0.00 | 0.05 | 0.05 | 76 | 1016.0 |
| 20260830031016 | 71 | 175 | 3.0 | 7.0 | 0.00 | 0.05 | 0.05 | 76 | 1015.9 |
| 20260830030510 | 71 | 274 | 2.0 | 7.0 | 0.00 | 0.05 | 0.05 | 76 | 1015.9 |
| 20260830030031 | 72 | 189 | 3.0 | 8.0 | 0.00 | 0.05 | 0.05 | 75 | 1015.9 |
| 20260830025519 | 72 | 159 | 2.0 | 8.0 | 0.00 | 0.05 | 0.05 | 75 | 1015.8 |
| 20260830025009 | 72 | 289 | 1.0 | 10.0 | 0.00 | 0.05 | 0.05 | 75 | 1015.7 |
| 20260830024542 | 72 | 221 | 2.0 | 10.0 | 0.00 | 0.05 | 0.05 | 75 | 1015.7 |
| 20260830024018 | 72 | 331 | 3.0 | 9.0 | 0.00 | 0.05 | 0.05 | 75 | 1015.7 |
| 20260830023512 | 72 | 215 | 3.0 | 10.0 | 0.00 | 0.05 | 0.05 | 75 | 1015.6 |
| 20260830023039 | 72 | 145 | 4.0 | 11.0 | 0.00 | 0.05 | 0.05 | 75 | 1015.5 |
| 20260830022508 | 72 | 182 | 5.0 | 11.0 | 0.00 | 0.05 | 0.05 | 74 | 1015.6 |